RYR69D EBCI-LDZA

Flight info

Callsign RYR69D
Flight time N/A
Altitude 37000
Route RITAX M624 DIK M150 PITES DCT KRH DCT UTABA L607 MOMUK DCT UMVEG DCT GOLVA DCT MIRSO DCT PETOV
Aircraft A320/M-SDE3FGHIRWY/LB1

Departure

Time 2026-04-27 09:51
Airport Brussels South Charleroi Airport (EBCI)

Arrival

Time N/A
Airport Zagreb Franjo Tuđman International Airport (LDZA)
Time Latitude Longitude Altitude Speed Heading
2026-04-27 09:28 50.46839 4.46985 627 ft 0 kts 335°
2026-04-27 09:42 50.46825 4.46995 623 ft 4 kts 335°
2026-04-27 09:43 50.46803 4.47016 623 ft 4 kts 303°
2026-04-27 09:43 50.46797 4.47051 623 ft 4 kts 252°
2026-04-27 09:43 50.46801 4.47067 621 ft 1 kts 245°
2026-04-27 09:43 50.46801 4.47068 621 ft 0 kts 245°
2026-04-27 09:45 50.46799 4.47060 624 ft 4 kts 245°
2026-04-27 09:45 50.46767 4.46950 622 ft 16 kts 245°
2026-04-27 09:46 50.46722 4.46795 621 ft 15 kts 245°
2026-04-27 09:46 50.46674 4.46633 615 ft 18 kts 245°
2026-04-27 09:46 50.46616 4.46524 613 ft 6 kts 158°
2026-04-27 09:46 50.46552 4.46555 623 ft 12 kts 192°
2026-04-27 09:47 50.46506 4.46456 626 ft 11 kts 245°
2026-04-27 09:47 50.46472 4.46338 620 ft 15 kts 246°
2026-04-27 09:47 50.46413 4.46133 617 ft 24 kts 245°
2026-04-27 09:47 50.46334 4.45862 617 ft 30 kts 246°
2026-04-27 09:48 50.46241 4.45536 616 ft 34 kts 246°
2026-04-27 09:48 50.46138 4.45188 615 ft 36 kts 244°
2026-04-27 09:48 50.46030 4.44824 618 ft 37 kts 246°
2026-04-27 09:48 50.45921 4.44448 621 ft 39 kts 238°
2026-04-27 09:49 50.45753 4.44112 616 ft 40 kts 231°
2026-04-27 09:49 50.45570 4.43825 616 ft 23 kts 218°
2026-04-27 09:49 50.45555 4.43698 613 ft 8 kts 219°
2026-04-27 09:49 50.45538 4.43722 621 ft 3 kts 104°
2026-04-27 09:50 50.45547 4.43780 619 ft 7 kts 68°
2026-04-27 09:50 50.45574 4.43871 618 ft 12 kts 65°
2026-04-27 09:50 50.45678 4.44223 619 ft 71 kts 65°
2026-04-27 09:50 50.45978 4.45254 621 ft 134 kts 65°
2026-04-27 09:51 50.46425 4.46771 877 ft 162 kts 64°
2026-04-27 09:51 50.46952 4.48407 1526 ft 174 kts 56°
2026-04-27 09:51 50.47696 4.49925 2376 ft 174 kts 50°
2026-04-27 09:51 50.48490 4.51344 3235 ft 172 kts 49°
2026-04-27 09:52 50.49283 4.52736 4020 ft 173 kts 49°
2026-04-27 09:52 50.50123 4.54231 4405 ft 193 kts 49°
2026-04-27 09:52 50.51065 4.55929 4741 ft 219 kts 49°
2026-04-27 09:52 50.52104 4.57821 5192 ft 243 kts 49°
2026-04-27 09:53 50.53246 4.59955 5700 ft 265 kts 51°
2026-04-27 09:53 50.54409 4.62258 6515 ft 274 kts 52°
2026-04-27 09:53 50.55594 4.64652 7386 ft 281 kts 52°
2026-04-27 09:53 50.56796 4.67098 8285 ft 285 kts 51°
2026-04-27 09:54 50.58016 4.69590 9234 ft 289 kts 51°
2026-04-27 09:54 50.59250 4.72122 10101 ft 295 kts 50°
2026-04-27 09:54 50.60524 4.74727 10699 ft 310 kts 51°
2026-04-27 09:54 50.61896 4.77519 11003 ft 334 kts 51°
2026-04-27 09:55 50.63317 4.80495 11407 ft 352 kts 56°
2026-04-27 09:55 50.64322 4.84051 12111 ft 361 kts 74°
2026-04-27 09:55 50.64056 4.91950 13603 ft 371 kts 112°
2026-04-27 09:56 50.62737 4.95447 14315 ft 374 kts 132°
2026-04-27 09:56 50.60919 4.98395 14977 ft 377 kts 137°
2026-04-27 09:56 50.59041 5.01330 15624 ft 383 kts 137°
2026-04-27 09:56 50.57141 5.04295 16252 ft 388 kts 137°
2026-04-27 09:57 50.55213 5.07307 16873 ft 393 kts 136°
2026-04-27 09:57 50.53261 5.10363 17481 ft 398 kts 137°
2026-04-27 09:57 50.51288 5.13456 18111 ft 403 kts 136°
2026-04-27 09:57 50.49290 5.16589 18710 ft 408 kts 136°
2026-04-27 09:58 50.47269 5.19750 19268 ft 412 kts 137°
2026-04-27 09:58 50.45225 5.22942 19857 ft 415 kts 137°
2026-04-27 09:58 50.43172 5.26149 20462 ft 418 kts 137°
2026-04-27 09:58 50.41100 5.29378 21037 ft 421 kts 137°
2026-04-27 09:59 50.39013 5.32623 21612 ft 425 kts 137°
2026-04-27 09:59 50.36904 5.35897 22168 ft 428 kts 137°
2026-04-27 09:59 50.34782 5.39185 22717 ft 431 kts 137°
2026-04-27 09:59 50.32642 5.42501 23252 ft 434 kts 137°
2026-04-27 10:00 50.30484 5.45840 23767 ft 437 kts 137°
2026-04-27 10:00 50.28310 5.49197 24168 ft 441 kts 138°
2026-04-27 10:00 50.26123 5.52570 24581 ft 444 kts 138°
2026-04-27 10:00 50.23914 5.55976 24966 ft 447 kts 138°
2026-04-27 10:01 50.21722 5.59352 25359 ft 450 kts 138°
2026-04-27 10:01 50.19458 5.62834 25756 ft 453 kts 138°
2026-04-27 10:01 50.17209 5.66288 26143 ft 455 kts 138°
2026-04-27 10:01 50.14972 5.69712 26522 ft 457 kts 139°
2026-04-27 10:02 50.12693 5.73191 26902 ft 460 kts 139°
2026-04-27 10:02 50.10401 5.76684 27263 ft 462 kts 139°
2026-04-27 10:02 50.08095 5.80195 27615 ft 465 kts 139°
2026-04-27 10:02 50.05768 5.83724 27968 ft 467 kts 139°
2026-04-27 10:03 50.03425 5.87245 28308 ft 469 kts 139°
2026-04-27 10:03 50.01057 5.90780 28665 ft 471 kts 139°
2026-04-27 10:03 49.98685 5.94309 28988 ft 473 kts 139°
2026-04-27 10:03 49.96301 5.97858 29293 ft 476 kts 139°
2026-04-27 10:04 49.93910 6.01420 29578 ft 478 kts 139°
2026-04-27 10:04 49.91504 6.04998 29866 ft 480 kts 139°
2026-04-27 10:04 49.89086 6.08592 30137 ft 482 kts 139°
2026-04-27 10:04 49.86806 6.12427 30376 ft 487 kts 131°
2026-04-27 10:05 49.84875 6.16770 30597 ft 491 kts 122°
2026-04-27 10:05 49.83265 6.21445 30896 ft 492 kts 119°
2026-04-27 10:05 49.81703 6.26069 31220 ft 491 kts 120°
2026-04-27 10:05 49.80094 6.30803 31527 ft 490 kts 120°
2026-04-27 10:06 49.78523 6.35398 31844 ft 488 kts 120°
2026-04-27 10:06 49.76936 6.40028 32179 ft 487 kts 120°
2026-04-27 10:06 49.75349 6.44649 32504 ft 486 kts 120°
2026-04-27 10:06 49.73764 6.49256 32832 ft 485 kts 120°
2026-04-27 10:07 49.72185 6.53850 33150 ft 484 kts 120°
2026-04-27 10:07 49.70612 6.58439 33444 ft 483 kts 120°
2026-04-27 10:07 49.69551 6.61541 33677 ft 483 kts 120°
2026-04-27 10:07 49.67476 6.67595 34117 ft 481 kts 120°
2026-04-27 10:08 49.66432 6.70637 34316 ft 481 kts 120°
2026-04-27 10:08 49.64863 6.75198 34595 ft 480 kts 120°
2026-04-27 10:08 49.63291 6.79752 34865 ft 481 kts 120°
2026-04-27 10:08 49.61718 6.84295 35128 ft 480 kts 120°
2026-04-27 10:09 49.60141 6.88846 35385 ft 480 kts 120°
2026-04-27 10:09 49.58563 6.93386 35633 ft 480 kts 120°
2026-04-27 10:09 49.56982 6.97924 35871 ft 480 kts 120°
2026-04-27 10:09 49.55404 7.02448 36130 ft 479 kts 120°
2026-04-27 10:10 49.53829 7.06965 36366 ft 479 kts 120°
2026-04-27 10:10 49.52252 7.11480 36577 ft 478 kts 120°
2026-04-27 10:10 49.50675 7.15978 36823 ft 477 kts 120°
2026-04-27 10:10 49.49095 7.20468 37046 ft 477 kts 120°
2026-04-27 10:11 49.47510 7.24967 37204 ft 478 kts 120°
2026-04-27 10:11 49.45926 7.29459 37236 ft 478 kts 120°